GW5195 Weather Reports


time (UTC)temp
C
wind
direction
speed
KPH
gust
KPH
rain 1hr
cm
rain 24hr
cm
rain mn
cm
humidity
%
barometer
mb
20260906220016 32 93 3.2 6.4 0.00 0.00 0.00 33 1015.4
20260906215037 32 63 3.2 6.4 0.00 0.00 0.00 33 1015.6
20260906214016 32 89 3.2 9.7 0.00 0.00 0.00 33 1015.7
20260906213037 31 66 4.8 9.7 0.00 0.00 0.00 33 1015.7
20260906212016 31 54 4.8 11.3 0.00 0.00 0.00 33 1015.9
20260906211017 30 61 4.8 8.0 0.00 0.00 0.00 35 1016.2
20260906210017 31 60 3.2 6.4 0.00 0.00 0.00 36 1016.3
20260906205016 31 51 3.2 9.7 0.00 0.00 0.00 35 1016.4
20260906204037 32 57 6.4 9.7 0.00 0.00 0.00 32 1016.5
20260906203017 32 108 3.2 8.0 0.00 0.00 0.00 33 1016.5
20260906202017 31 65 3.2 8.0 0.00 0.00 0.00 34 1016.6
20260906201016 32 73 4.8 9.7 0.00 0.00 0.00 35 1016.7
20260906200018 32 65 3.2 8.0 0.00 0.00 0.00 35 1016.8
20260906195036 31 69 3.2 8.0 0.00 0.00 0.00 36 1016.8
20260906194018 30 62 4.8 9.7 0.00 0.00 0.00 36 1017.0
20260906193017 30 65 3.2 8.0 0.00 0.00 0.00 36 1017.1
20260906192018 30 107 4.8 11.3 0.00 0.00 0.00 36 1017.3
20260906191017 30 68 3.2 8.0 0.00 0.00 0.00 37 1017.3
20260906190037 30 49 3.2 9.7 0.00 0.00 0.00 38 1017.5
20260906185017 29 63 3.2 11.3 0.00 0.00 0.00 41 1017.8
20260906184017 29 60 3.2 8.0 0.00 0.00 0.00 41 1018.2
20260906183017 29 357 1.6 6.4 0.00 0.00 0.00 40 1018.4
20260906182017 28 315 1.6 6.4 0.00 0.00 0.00 43 1018.6
20260906181016 27 63 1.6 4.8 0.00 0.00 0.00 46 1018.6
20260906180038 27 66 3.2 8.0 0.00 0.00 0.00 47 1018.8
20260906175016 26 63 3.2 8.0 0.00 0.00 0.00 49 1019.1
20260906174017 26 67 4.8 8.0 0.00 0.00 0.00 50 1019.5
20260906173016 26 51 4.8 8.0 0.00 0.00 0.00 50 1019.5
20260906172017 25 11 1.6 6.4 0.00 0.00 0.00 53 1019.5
20260906171036 25 64 1.6 6.4 0.00 0.00 0.00 54 1019.7
20260906170017 24 41 1.6 4.8 0.00 0.00 0.00 57 1019.8
20260906165016 24 61 3.2 6.4 0.00 0.00 0.00 57 1020.0
20260906164017 24 134 1.6 4.8 0.00 0.00 0.00 57 1020.1
20260906163016 23 115 1.6 6.4 0.00 0.00 0.00 60 1020.1
20260906162037 23 12 1.6 4.8 0.00 0.00 0.00 59 1020.0
20260906161016 23 35 1.6 4.8 0.00 0.00 0.00 59 1019.9
20260906160017 23 45 1.6 6.4 0.00 0.00 0.00 61 1020.0
20260906155018 22 64 3.2 6.4 0.00 0.00 0.00 61 1020.0
20260906154016 22 10 1.6 4.8 0.00 0.00 0.00 63 1020.1
20260906153038 21 52 3.2 6.4 0.00 0.00 0.00 66 1020.1
20260906152016 21 57 3.2 6.4 0.00 0.00 0.00 67 1020.2
20260906151017 20 26 1.6 4.8 0.00 0.00 0.00 70 1020.3
20260906150016 19 44 1.6 6.4 0.00 0.00 0.00 75 1020.2
20260906145037 19 28 0.0 3.2 0.00 0.00 0.00 75 1020.3
20260906144016 20 48 1.6 6.4 0.00 0.00 0.00 75 1020.3
20260906143017 19 25 3.2 8.0 0.00 0.00 0.00 76 1020.1
20260906142016 18 2 1.6 6.4 0.00 0.00 0.00 79 1020.2
20260906141017 18 119 1.6 4.8 0.00 0.00 0.00 81 1020.2
20260906140036 17 196 3.2 6.4 0.00 0.00 0.00 82 1020.2
20260906135017 17 239 4.8 8.0 0.00 0.00 0.00 83 1020.1
20260906134016 16 263 4.8 8.0 0.00 0.00 0.00 84 1020.2
20260906133017 16 268 3.2 6.4 0.00 0.00 0.00 84 1020.2
20260906132016 16 168 1.6 6.4 0.00 0.00 0.00 83 1020.1
20260906131037 16 292 1.6 4.8 0.00 0.00 0.00 83 1020.1
20260906130016 16 284 1.6 6.4 0.00 0.00 0.00 82 1020.0
20260906125017 16 30 3.2 6.4 0.00 0.00 0.00 81 1019.8
20260906124016 16 215 3.2 6.4 0.00 0.00 0.00 81 1019.8
20260906123017 15 209 1.6 6.4 0.00 0.00 0.00 80 1019.8
20260906122016 15 195 0.0 4.8 0.00 0.00 0.00 80 1019.8
20260906121017 16 348 1.6 4.8 0.00 0.00 0.00 79 1019.6
20260906120016 16 21 0.0 1.6 0.00 0.00 0.00 77 1019.7
20260906115037 16 21 0.0 1.6 0.00 0.00 0.00 76 1019.7
20260906114016 16 0.0 0.0 0.00 0.00 0.00 77 1019.6
20260906113017 16 303 0.0 1.6 0.00 0.00 0.00 76 1019.7
20260906112016 16 0.0 1.6 0.00 0.00 0.00 75 1019.5
20260906111017 16 37 0.0 1.6 0.00 0.00 0.00 73 1019.6
20260906110036 16 0.0 0.0 0.00 0.00 0.00 73 1019.5
20260906105017 16 286 0.0 1.6 0.00 0.00 0.00 72 1019.4
20260906104016 17 0.0 1.6 0.00 0.00 0.00 71 1019.5
20260906103017 17 295 0.0 3.2 0.00 0.00 0.00 71 1019.5
20260906102016 17 308 0.0 3.2 0.00 0.00 0.00 71 1019.5
20260906101037 17 294 1.6 3.2 0.00 0.00 0.00 71 1019.4
20260906100016 17 329 0.0 1.6 0.00 0.00 0.00 69 1019.4
20260906095017 18 327 0.0 3.2 0.00 0.00 0.00 68 1019.5
20260906094018 18 322 0.0 1.6 0.00 0.00 0.00 66 1019.5
20260906093016 18 30 1.6 3.2 0.00 0.00 0.00 65 1019.2
20260906092037 18 50 1.6 4.8 0.00 0.00 0.00 64 1019.1
20260906091016 18 48 1.6 3.2 0.00 0.00 0.00 64 1018.7
20260906090017 19 309 0.0 3.2 0.00 0.00 0.00 64 1018.6
20260906085036 19 54 0.0 3.2 0.00 0.00 0.00 62 1018.5
20260906084017 20 318 0.0 1.6 0.00 0.00 0.00 61 1018.8
20260906083016 20 38 0.0 3.2 0.00 0.00 0.00 59 1018.8
20260906082017 20 26 1.6 3.2 0.00 0.00 0.00 59 1018.8
20260906081016 20 29 1.6 4.8 0.00 0.00 0.00 57 1018.8
20260906080036 20 32 1.6 6.4 0.00 0.00 0.00 56 1018.6
20260906075018 20 34 1.6 4.8 0.00 0.00 0.00 54 1018.5
20260906074016 20 357 0.0 3.2 0.00 0.00 0.00 52 1018.7
20260906073017 20 25 0.0 3.2 0.00 0.00 0.00 51 1018.7
20260906072016 21 321 0.0 3.2 0.00 0.00 0.00 50 1018.7
20260906071037 21 44 0.0 3.2 0.00 0.00 0.00 50 1018.8
20260906070016 21 327 0.0 1.6 0.00 0.00 0.00 50 1018.7
20260906065017 21 347 0.0 3.2 0.00 0.00 0.00 49 1018.5
20260906064016 21 35 0.0 4.8 0.00 0.00 0.00 49 1018.6
20260906063017 21 313 0.0 3.2 0.00 0.00 0.00 48 1018.6
20260906062036 21 38 1.6 3.2 0.00 0.00 0.00 48 1018.6
20260906061017 22 43 0.0 3.2 0.00 0.00 0.00 47 1018.7
20260906060017 22 284 1.6 4.8 0.00 0.00 0.00 46 1018.9
20260906055016 22 272 0.0 3.2 0.00 0.00 0.00 46 1019.0
20260906054017 22 9 0.0 3.2 0.00 0.00 0.00 45 1018.8
20260906053016 22 27 0.0 3.2 0.00 0.00 0.00 45 1018.9
20260906052017 22 36 1.6 3.2 0.00 0.00 0.00 45 1018.7
20260906051036 22 37 0.0 3.2 0.00 0.00 0.00 44 1018.7
20260906050017 23 43 1.6 4.8 0.00 0.00 0.00 44 1018.6
20260906045016 23 31 1.6 3.2 0.00 0.00 0.00 43 1018.8
20260906044017 23 254 3.2 6.4 0.00 0.00 0.00 43 1018.5
20260906043016 22 262 1.6 4.8 0.00 0.00 0.00 44 1018.3
20260906042037 23 50 0.0 3.2 0.00 0.00 0.00 41 1018.0
20260906041016 23 53 1.6 4.8 0.00 0.00 0.00 41 1017.8
20260906040017 23 294 0.0 3.2 0.00 0.00 0.00 40 1017.5
20260906035016 24 52 1.6 3.2 0.00 0.00 0.00 39 1017.4
20260906034017 25 37 0.0 3.2 0.00 0.00 0.00 38 1017.6
20260906033036 25 16 0.0 3.2 0.00 0.00 0.00 38 1017.5
20260906032017 25 26 0.0 4.8 0.00 0.00 0.00 37 1017.3
20260906031016 25 51 3.2 6.4 0.00 0.00 0.00 37 1017.2
20260906030017 25 50 1.6 4.8 0.00 0.00 0.00 37 1017.1
20260906025016 25 56 3.2 4.8 0.00 0.00 0.00 36 1016.9
20260906024017 25 53 3.2 3.2 0.00 0.00 0.00 37 1016.7
20260906023036 26 50 1.6 3.2 0.00 0.00 0.00 36 1016.8
20260906022017 26 49 1.6 3.2 0.00 0.00 0.00 34 1016.9
20260906021016 26 44 1.6 3.2 0.00 0.00 0.00 34 1016.6
20260906020017 26 49 1.6 3.2 0.00 0.00 0.00 34 1016.5
20260906015018 27 307 0.0 1.6 0.00 0.00 0.00 33 1016.3
20260906014037 27 50 0.0 3.2 0.00 0.00 0.00 33 1016.2
20260906013016 27 24 0.0 3.2 0.00 0.00 0.00 32 1016.3
20260906012017 28 328 1.6 4.8 0.00 0.00 0.00 31 1016.3
20260906011016 28 296 3.2 9.7 0.00 0.00 0.00 31 1016.2
20260906010017 29 313 1.6 6.4 0.00 0.00 0.00 30 1016.3
20260906005036 30 314 3.2 8.0 0.00 0.00 0.00 29 1016.3
20260906004017 30 311 3.2 8.0 0.00 0.00 0.00 28 1016.4
20260906003016 30 325 3.2 6.4 0.00 0.00 0.00 27 1016.4
20260906002017 30 320 3.2 8.0 0.00 0.00 0.00 28 1016.3
20260906001016 30 312 3.2 6.4 0.00 0.00 0.00 29 1016.4
20260906000037 31 292 3.2 8.0 0.00 0.00 0.00 28 1016.3
20260905235016 31 317 1.6 6.4 0.00 0.00 0.00 27 1016.2
20260905234017 32 337 0.0 4.8 0.00 0.00 0.00 26 1016.2
20260905233016 32 61 3.2 4.8 0.00 0.00 0.00 25 1016.1
20260905232017 32 67 1.6 3.2 0.00 0.00 0.00 25 1016.1
20260905231016 33 2 1.6 8.0 0.00 0.00 0.00 24 1015.8
20260905230017 33 19 1.6 4.8 0.00 0.00 0.00 23 1015.8
20260905225036 33 52 1.6 6.4 0.00 0.00 0.00 23 1015.7
20260905224017 34 339 1.6 4.8 0.00 0.00 0.00 23 1015.7
20260905223016 33 58 3.2 6.4 0.00 0.00 0.00 22 1015.8
20260905222017 34 28 3.2 8.0 0.00 0.00 0.00 23 1015.9
20260905221016 33 83 1.6 6.4 0.00 0.00 0.00 22 1015.8